Showing default

ENSHI XIDA SHANQUAN, 64962

Orbit data source: Space-Track

ENSHI XIDA SHANQUAN, 64962 is a payload satellite owned by Hangsheng (CN) in SSO that was launched on Tue, 29 Jul 2025 UTC via an SHUANG QUXIAN 1 launch vehicle from the Jiuquan Satellite Launch Center, China (JSC). Payload-class satellites include a variety of spacecraft equipped with specific instruments for various scientific and technological missions. These include communications satellites like Starlink; space stations such as the ISS; scientific satellites like the Hubble; Earth observation satellites from companies like Planet Labs, Umbra, and HawkEye 360; GPS; miniature CubeSats for education and research; and military/defense satellites.

Loading next visibility...
Identifier
64962, 2025-160A
Orbit
SSO
Country
Flag of CNCN / PRC
Related business
Manufacturer
MIAO
Mission
Operational Commercial Imaging
Bus & Motor
Unknown
Mass
~10 kg wet, ~10 kg dry
Launch date (UTC)
2025-07-29 (1 year ago)
Launch vehicle
SHUANG QUXIAN 1
Launch site
Jiuquan Satellite Launch Center, China (JSC)
Object type
Payload
Rocket body
Debris
Shape & HBR
Box + 2 Pan, 0.2 m
Radar Cross Section
0.080 m², Medium (>0.1 m² and < 1m²)

Expand to show TLE details & history
Last TLE update: 4 hours ago

TLE from 4 hours ago
0 ENSHI XIDA SHANQUAN
1 64962U 25160A   26265.31749105  .00041507  00000-0  77091-3 0  9996
2 64962  97.3555 344.5305 0006278 203.4381 156.6585 15.48791941 64411
Epoch: 2026-09-22T07:37Z
TLE epoch observation values (Epoch: 2026-09-22T07:37:11.226Z)
Latitude
Longitude
-130.95097°
Altitude
427.31 km
Speed
7.653 km/s
True Right ascension
22h 58m 07s
True Declination
0° 00' 00"
Sunlit
Object was in full shadow at epoch
Visualization orbit readout
Latitude
Unknown
Longitude
Unknown
Altitude
Unknown
Speed
Unknown
Apparent Right ascension
Unknown
Apparent Declination
Unknown
Sunlit
N/A
Visualization observer readout
Local Sidereal Time
04:55:15
Azimuth
Unknown
Elevation
Unknown
Doppler factor
Unknown
Orbital elements
Apogee altitude
421.45 km
Perigee altitude
412.918 km
Semi-major axis
6,795.321 km
Eccentricity
0.00063
Inclination
97.3555°
RAAN
344.5305°
Arg. of periapsis
203.4381°
True anomaly
156.68698°
Mean anomaly
156.6585°
Eccentric anomaly
156.67274°
Mean motion
3.87461 °/min
Orbital period
92.91 mins
BSTAR
0.00077091
Loading maneuver chart data...
Computing Atmospheric mass density...
Loading historical data...
Loading historical data...
Loading historical data...
Loading historical data...
Loading historical data...
Loading historical data...
Loading historical data...
Other satellites on launch #160 in the year 2025 (2025-07-29 UTC)

Documentation

Showing up to 5 results
|